Wind_Speed
42 41 43 45 46 47 46 44 39 36 35 35 37 38 39 40 41 41 42 42 43 45 46 47 49 50 51 53 54 55 57 58 60 61 62 63 65 66 67 67 66 65
43 43 44 45 46 45 43 39 36 34 34 36 37 39 40 41 42 43 43 44 45 46 47 48 50 51 52 54 55 56 58 60 61 62 63 65 65 66 65 65 64 64
44 46 46 46 45 44 41 38 36 35 37 39 40 42 43 44 44 45 45 46 47 48 49 50 51 52 54 55 57 58 60 61 62 63 64 65 64 64 63 63 63 64
44 45 45 45 45 43 41 39 39 40 41 43 44 44 45 46 47 47 48 49 49 50 51 51 53 54 55 57 58 60 61 62 63 64 64 63 62 62 61 62 63 65
44 45 45 45 44 43 42 41 42 43 44 45 45 46 46 48 49 50 50 51 51 51 52 53 55 56 58 59 60 61 62 63 64 63 62 61 60 60 61 62 64 65
46 47 46 44 43 42 42 42 42 43 44 45 46 47 48 49 50 51 51 52 52 53 54 56 58 59 60 61 62 63 63 63 62 61 60 59 59 60 62 63 64 65
46 46 44 44 44 43 43 43 43 44 45 47 48 49 50 51 52 53 53 54 54 55 57 58 59 60 61 62 63 63 62 61 60 58 57 58 59 61 62 64 65 66
46 45 45 45 45 45 45 45 45 47 48 49 50 51 52 53 54 55 55 56 57 58 59 60 61 62 62 63 62 61 59 58 57 56 57 59 60 62 63 64 65 66
48 47 47 47 47 47 47 47 48 49 50 51 52 53 54 55 56 56 57 58 59 60 61 62 62 62 62 61 59 57 56 56 56 56 58 60 61 63 64 65 66 65
49 48 48 48 49 49 50 50 51 51 52 53 54 55 55 56 57 58 59 60 60 61 62 62 61 61 60 58 56 54 54 55 56 58 59 61 62 64 65 65 64 63
49 49 49 50 50 51 51 52 52 53 54 55 55 56 56 57 58 59 60 60 60 60 60 60 59 58 57 54 53 53 54 56 57 59 60 62 63 64 64 63 62 60
50 50 50 51 51 51 52 52 53 54 54 55 56 56 57 58 59 59 59 59 58 58 58 57 56 55 54 53 52 53 55 57 58 60 61 62 63 63 62 60 59 58
49 50 50 51 51 51 51 52 53 54 55 56 56 56 57 58 58 58 57 56 56 56 55 54 53 53 52 52 52 54 56 58 59 60 61 62 62 61 59 57 57 57
48 49 50 51 51 51 52 53 54 55 55 56 56 55 55 56 55 55 54 53 53 53 52 51 51 52 52 52 53 54 57 58 59 60 61 61 60 58 57 56 56 57
47 48 49 50 50 51 51 52 53 53 54 53 53 53 52 52 52 51 50 49 50 50 50 50 51 52 52 52 53 55 57 57 59 60 60 59 57 56 55 55 56 57
46 47 47 48 49 49 49 50 50 50 50 50 50 50 50 49 48 48 47 47 48 49 49 50 51 52 52 53 54 55 56 57 58 58 57 57 56 55 55 56 57 58
44 45 46 46 46 47 47 47 47 48 48 48 48 48 48 47 47 46 46 47 47 48 49 50 51 52 53 54 55 56 56 56 56 56 56 56 55 55 56 57 58 60
42 43 43 43 44 44 45 45 46 47 47 47 47 47 47 46 46 45 46 46 47 48 49 50 52 54 55 56 56 55 55 55 55 55 56 56 55 56 57 58 60 62
41 41 42 42 42 42 43 44 45 45 46 46 45 45 45 44 43 44 45 46 47 48 50 52 54 55 56 57 56 54 54 54 55 55 56 56 56 57 59 60 62 64
40 40 40 39 39 41 42 42 43 43 43 43 43 43 44 44 44 44 46 47 47 49 52 54 55 56 57 57 55 54 54 54 55 56 56 57 57 59 60 62 63 66
38 37 37 37 38 40 40 39 39 40 41 41 42 43 44 45 44 44 45 46 48 51 53 54 56 58 58 56 54 54 54 55 56 56 57 57 58 60 61 63 65 67
35 34 33 34 35 35 35 36 37 40 41 43 44 45 47 48 47 45 46 49 51 53 54 55 58 60 58 55 54 55 55 56 57 57 57 58 59 61 63 64 66 68
31 31 30 31 34 35 37 39 41 43 46 47 48 50 52 53 53 52 52 52 53 54 56 58 60 59 56 55 56 56 56 56 57 58 58 59 61 63 64 65 67 68
28 30 34 38 41 43 45 46 46 47 50 52 54 55 57 58 58 56 54 53 54 56 59 60 59 57 56 57 57 57 57 58 58 59 60 61 62 64 65 66 67 68
26 30 37 43 47 48 49 50 50 51 54 57 58 59 60 61 60 57 55 56 58 59 59 58 57 56 57 58 59 59 59 59 59 60 61 62 63 64 65 66 68 68
29 30 35 42 47 48 49 51 52 53 56 59 60 60 61 62 60 59 58 59 59 58 56 56 56 57 59 60 60 61 60 60 61 61 62 63 63 65 66 67 68 68
Wind_Direction
262 262 260 264 271 280 285 288 287 286 283 279 276 275 274 275 277 279 281 283 285 287 289 291 294 297 300 301 302 304 305 305 306 307 308 308 308 308 308 308 308 308
257 259 262 270 279 284 286 285 283 280 277 275 274 274 276 278 279 281 283 285 287 288 290 293 296 298 300 301 303 304 305 306 306 307 308 308 308 308 308 308 308 308
256 259 265 276 281 282 282 279 276 273 272 273 274 276 278 280 281 283 284 286 288 290 292 295 297 299 300 302 303 304 305 306 307 308 308 308 308 308 308 308 309 309
257 261 269 276 278 277 276 273 271 270 271 273 275 277 279 281 283 284 285 287 289 292 294 296 298 299 301 303 304 305 306 306 307 308 307 307 307 308 308 309 310 310
259 265 271 274 273 272 271 269 269 270 272 274 277 279 281 282 283 285 286 288 291 294 296 297 299 300 302 303 304 305 306 307 307 307 307 307 307 308 309 309 310 311
262 268 271 271 271 270 269 269 271 272 274 277 279 280 282 283 285 286 289 291 294 296 297 298 299 301 302 303 304 305 306 306 307 306 307 307 308 309 310 310 311 312
264 268 269 270 270 270 270 271 272 274 275 277 279 281 282 284 286 288 291 293 295 296 297 298 300 301 302 303 304 305 306 306 306 307 307 308 309 310 310 311 312 312
265 267 269 270 270 270 271 272 272 274 276 277 279 281 283 285 288 290 292 293 295 296 298 299 300 301 302 303 304 305 305 305 306 307 308 309 310 311 311 312 312 313
264 266 268 269 270 270 271 271 272 274 276 278 280 282 285 287 289 291 292 294 295 297 298 299 300 300 301 303 304 305 305 306 307 309 310 310 311 311 312 312 313 313
263 265 267 268 269 270 271 272 273 275 277 279 281 283 285 288 289 291 293 294 295 297 297 298 299 300 301 303 304 305 306 307 309 310 310 311 311 311 312 312 313 314
263 265 267 268 269 270 271 272 274 276 278 280 282 284 286 288 289 291 292 294 295 296 296 297 299 300 302 303 305 305 307 309 310 310 311 311 311 311 312 313 314 315
264 266 267 268 269 270 272 273 275 277 279 281 282 284 286 287 289 290 292 294 294 295 296 297 299 300 302 304 305 307 308 310 310 310 311 311 311 312 313 314 315 316
265 266 267 269 270 272 273 275 276 278 280 281 283 285 286 288 289 291 292 294 294 295 296 298 299 301 303 305 307 308 309 310 310 310 310 311 311 312 314 315 316 317
267 267 269 270 272 273 275 276 278 280 281 283 284 286 287 288 290 292 293 294 294 296 297 299 300 301 303 306 308 309 310 310 310 310 310 311 312 313 315 316 317 318
268 269 271 272 273 275 277 278 280 281 282 284 286 287 288 290 291 292 294 294 295 296 298 298 300 302 304 307 309 310 310 310 310 310 310 311 313 314 315 316 317 318
270 271 273 274 276 277 279 280 281 282 284 285 287 288 289 291 292 293 294 295 295 296 297 298 300 302 305 307 309 310 310 309 309 310 311 312 314 315 316 316 317 318
273 274 276 277 279 280 281 282 282 284 286 287 288 290 291 292 293 293 294 294 295 296 298 299 301 303 305 308 309 310 309 309 309 310 311 313 314 315 316 316 317 318
277 278 279 280 281 282 283 284 285 287 288 289 290 290 291 292 292 292 293 294 296 297 299 301 302 304 306 308 309 309 309 309 310 311 312 313 314 315 316 316 317 318
280 282 283 284 283 284 286 287 288 288 289 289 290 290 291 291 292 293 294 296 297 298 299 301 303 304 306 308 308 308 309 309 310 311 312 313 314 314 315 316 317 318
284 286 287 285 283 286 288 288 288 288 288 289 290 291 291 291 292 294 296 297 297 298 299 300 302 304 307 307 307 308 309 309 310 311 312 313 313 314 315 316 317 318
287 287 287 287 288 289 288 288 289 289 290 291 292 292 292 292 292 294 295 296 296 297 299 300 302 304 306 306 306 308 309 310 310 311 311 312 313 314 315 316 317 318
286 290 293 291 290 289 289 292 294 292 291 293 292 291 291 291 291 293 294 295 296 297 299 301 302 304 304 304 306 308 309 310 311 311 311 312 312 313 315 316 317 318
276 281 283 277 274 277 283 290 292 290 290 292 291 290 290 291 293 295 297 297 296 296 299 301 302 302 302 303 305 307 309 310 310 310 311 311 312 313 314 316 317 318
262 260 261 263 266 270 277 284 287 287 287 288 288 287 287 289 292 295 297 297 295 296 298 300 300 300 302 303 305 307 308 309 309 310 311 311 312 313 314 315 316 317
261 251 254 261 265 268 272 277 279 280 281 282 282 283 284 287 291 294 295 295 295 296 298 298 298 300 302 303 304 306 307 307 308 309 310 311 312 313 314 315 315 317
264 254 253 258 263 266 269 273 275 278 279 279 280 282 284 287 291 293 294 295 295 296 296 297 298 300 302 303 304 305 306 307 308 309 310 311 312 312 313 314 315 316
Height
10706 10706 10705 10704 10703 10702 10702 10702 10701 10701 10701 10700 10700 10699 10698 10697 10696 10695 10694 10693 10691 10689 10687 10685 10683 10681 10678 10676 10673 10670 10667 10664 10660 10657 10653 10650 10646 10642 10638 10634 10631 10627
10701 10701 10700 10699 10698 10698 10698 10698 10698 10698 10698 10697 10697 10696 10695 10693 10692 10691 10689 10688 10686 10684 10682 10680 10678 10676 10673 10671 10668 10665 10661 10658 10654 10651 10647 10644 10640 10636 10632 10628 10625 10621
10695 10696 10695 10695 10695 10695 10695 10695 10695 10695 10694 10693 10692 10691 10690 10689 10687 10686 10685 10683 10681 10679 10677 10675 10673 10670 10668 10665 10663 10659 10656 10652 10649 10646 10642 10638 10634 10630 10626 10623 10619 10615
10689 10690 10690 10691 10691 10691 10691 10692 10691 10691 10690 10689 10688 10687 10686 10684 10683 10681 10679 10678 10676 10674 10672 10670 10667 10665 10663 10660 10657 10654 10650 10647 10644 10640 10637 10633 10629 10625 10621 10618 10614 10609
10684 10685 10686 10686 10687 10687 10687 10687 10687 10686 10685 10684 10683 10682 10681 10679 10677 10675 10674 10672 10670 10668 10666 10664 10662 10659 10657 10654 10651 10648 10644 10641 10638 10635 10631 10627 10624 10620 10616 10612 10608 10603
10679 10680 10681 10682 10682 10682 10682 10682 10682 10681 10680 10679 10678 10677 10676 10674 10672 10670 10668 10666 10664 10662 10660 10658 10656 10653 10651 10648 10645 10642 10639 10635 10632 10629 10626 10622 10618 10615 10611 10607 10602 10598
10676 10676 10677 10677 10678 10678 10677 10677 10676 10675 10674 10673 10672 10671 10670 10668 10666 10664 10662 10660 10658 10656 10654 10652 10650 10647 10645 10642 10639 10636 10633 10629 10626 10623 10620 10617 10613 10609 10605 10601 10596 10591
10672 10672 10672 10673 10673 10673 10672 10672 10671 10670 10669 10668 10666 10666 10664 10662 10660 10658 10656 10654 10652 10650 10648 10646 10643 10641 10639 10637 10634 10630 10627 10623 10621 10618 10615 10611 10607 10603 10599 10595 10590 10585
10667 10668 10668 10669 10669 10668 10667 10667 10665 10664 10663 10662 10661 10660 10658 10656 10654 10652 10650 10648 10646 10644 10641 10639 10637 10635 10633 10631 10628 10624 10621 10618 10615 10612 10608 10604 10600 10596 10592 10588 10583 10578
10664 10664 10664 10664 10664 10663 10663 10661 10660 10659 10658 10656 10655 10654 10653 10651 10649 10647 10645 10642 10640 10637 10635 10633 10631 10629 10627 10625 10622 10618 10615 10612 10609 10606 10602 10598 10594 10590 10586 10581 10577 10571
10659 10659 10660 10660 10659 10659 10657 10656 10655 10653 10652 10651 10650 10649 10647 10645 10643 10641 10639 10636 10634 10631 10628 10626 10624 10623 10621 10619 10616 10612 10609 10606 10603 10600 10596 10592 10588 10584 10580 10575 10570 10565
10654 10655 10655 10654 10654 10653 10652 10651 10649 10648 10647 10645 10645 10644 10642 10640 10638 10635 10633 10630 10627 10624 10622 10620 10618 10616 10615 10613 10610 10607 10603 10600 10597 10593 10590 10586 10582 10578 10573 10569 10564 10559
10649 10649 10649 10649 10648 10648 10647 10645 10644 10643 10641 10640 10639 10638 10636 10634 10631 10629 10627 10624 10621 10618 10616 10614 10612 10610 10609 10607 10604 10601 10598 10594 10591 10587 10583 10580 10575 10571 10567 10563 10558 10554
10644 10643 10643 10643 10643 10642 10641 10640 10638 10637 10636 10634 10633 10632 10629 10627 10625 10623 10620 10618 10615 10612 10610 10608 10606 10604 10603 10601 10599 10596 10592 10589 10585 10581 10577 10573 10569 10565 10561 10557 10553 10549
10638 10638 10637 10637 10637 10636 10636 10635 10633 10631 10630 10628 10627 10625 10623 10621 10619 10617 10614 10612 10609 10607 10605 10603 10601 10599 10597 10595 10593 10590 10587 10583 10579 10575 10571 10567 10563 10560 10555 10551 10548 10543
10632 10632 10632 10632 10631 10631 10630 10629 10627 10625 10623 10622 10621 10619 10617 10615 10613 10611 10609 10607 10604 10602 10600 10597 10595 10593 10592 10590 10588 10585 10581 10577 10573 10569 10566 10561 10558 10554 10550 10546 10542 10538
10627 10627 10627 10626 10626 10625 10624 10623 10621 10619 10617 10616 10615 10613 10611 10609 10607 10606 10604 10602 10599 10597 10594 10592 10590 10588 10586 10584 10582 10579 10575 10572 10568 10564 10560 10556 10552 10548 10544 10540 10537 10533
10621 10621 10621 10620 10620 10619 10618 10617 10615 10613 10611 10610 10608 10607 10605 10603 10602 10600 10598 10596 10594 10592 10589 10587 10584 10582 10581 10579 10577 10573 10570 10566 10562 10558 10554 10550 10546 10542 10539 10535 10531 10527
10615 10615 10615 10615 10614 10613 10612 10611 10609 10607 10605 10604 10602 10601 10599 10598 10596 10595 10593 10591 10589 10586 10584 10581 10579 10577 10575 10573 10571 10568 10564 10560 10556 10552 10548 10544 10541 10537 10533 10530 10526 10522
10611 10610 10610 10609 10608 10607 10606 10605 10603 10601 10599 10598 10597 10595 10593 10592 10591 10589 10587 10586 10584 10581 10579 10576 10574 10572 10570 10568 10565 10562 10558 10554 10550 10546 10543 10539 10535 10532 10528 10524 10520 10516
10606 10606 10605 10604 10602 10601 10600 10599 10598 10596 10594 10593 10591 10590 10588 10586 10586 10585 10583 10581 10579 10577 10574 10572 10569 10566 10564 10562 10560 10557 10553 10549 10545 10541 10537 10534 10530 10526 10522 10519 10514 10510
10600 10600 10600 10599 10597 10596 10595 10594 10593 10591 10589 10588 10586 10584 10582 10581 10580 10580 10579 10577 10575 10572 10570 10567 10563 10561 10558 10556 10553 10551 10547 10543 10539 10536 10532 10529 10525 10521 10517 10513 10509 10504
10597 10597 10597 10595 10593 10592 10591 10590 10589 10587 10584 10583 10581 10579 10577 10575 10574 10574 10573 10571 10569 10567 10564 10561 10558 10555 10552 10550 10547 10545 10542 10538 10534 10531 10527 10524 10520 10516 10512 10508 10503 10499
10595 10595 10594 10591 10590 10589 10587 10586 10585 10582 10580 10577 10575 10574 10572 10570 10569 10568 10567 10565 10563 10561 10559 10556 10552 10549 10546 10543 10541 10539 10536 10533 10530 10526 10522 10519 10515 10510 10506 10502 10498 10494
10591 10591 10590 10588 10586 10585 10583 10581 10580 10577 10574 10572 10570 10568 10566 10564 10564 10563 10562 10560 10558 10556 10553 10550 10547 10544 10541 10538 10535 10533 10530 10527 10524 10521 10517 10513 10509 10505 10501 10497 10492 10488
10585 10586 10586 10584 10582 10580 10578 10576 10575 10572 10568 10565 10563 10562 10560 10559 10558 10557 10556 10554 10552 10550 10548 10545 10542 10538 10535 10532 10529 10527 10524 10522 10519 10516 10512 10508 10504 10500 10495 10491 10487 10483